Flag for Brazil Weather past 2 weeks in Belém, Pará, Brazil

Now
72 °F

Thunderstorms. Partly sunny.


Feels Like: 65 °F
Forecast: N/A
Wind: 6 mph from Southwest

Location: Belem Aeroporto

Current Time: Apr 19, 2015 at 6:14:02 PM

Latest Report: Apr 19, 2015 at 5:00 PM


Visibility: N/A

Pressure: 29.83 "Hg

Humidity: 100%

Dew point: 72 °F

Location of BelémLocation

Historic Weather in Belém — Graph

°F

Belém temperature yesterday

Maximum temperature yesterday: 88 °F (at 11:00 AM)
Minimum temperature yesterday: 75 °F (at 6:00 AM)
Average temperature yesterday: 79 °F

Past Weeks' High & Low Weather Summary

 TemperatureHumidityPressure
High88 °F (Apr 6, 1:00 PM)100% (Apr 8, 1:00 PM)29.98 "Hg (Apr 8, 1:00 PM)
Low43 °F (Apr 8, 1:00 PM)20% (Apr 6, 4:00 PM)29.77 "Hg (Apr 4, 4:00 PM)
Average78 °F88%29.88 "Hg
* Reported Apr 4 4:00 PM — Apr 19 4:00 PM, Belém, Weather by CustomWeather, © 2015

Note: Actual official high and low records may vary slightly from our data, if they occured in-between our weather recording intervals... More about our weather records

Advertising

Belém weather history for previous 24 hours

 ConditionsComfort  
Time TempWeatherWind HumidityBarometerVisibility
4:00 PM
Sun, Apr 19
75 °FThunderstorms. Partly sunny.14 mph89%29.86 "Hg1 mi
3:00 PM81 °FLight rain. Partly sunny.12 mph84%29.83 "HgN/A
2:00 PM82 °FPartly sunny.9 mph84%29.83 "HgN/A
1:00 PM84 °FBroken clouds.7 mph70%29.86 "HgN/A
12:00 PM82 °FBroken clouds.8 mph79%29.89 "HgN/A
11:00 AM82 °FBroken clouds.7 mph84%29.92 "HgN/A
10:00 AM81 °FBroken clouds.6 mph89%29.92 "HgN/A
9:00 AM79 °FPartly sunny.3 mph94%29.89 "HgN/A
8:00 AM77 °FPartly sunny.3 mph94%29.89 "HgN/A
7:00 AM77 °FPartly sunny.2 mph94%29.86 "HgN/A
6:00 AM75 °FPassing clouds.2 mph100%29.83 "HgN/A
5:00 AM77 °FPassing clouds.2 mph94%29.83 "HgN/A
4:00 AM77 °FPassing clouds.3 mph94%29.83 "HgN/A
3:00 AM77 °FPassing clouds.2 mph94%29.86 "HgN/A
2:00 AM77 °FPassing clouds.No wind94%29.86 "HgN/A
1:00 AM77 °FPassing clouds.3 mph94%29.89 "HgN/A
12:00 AM77 °FPassing clouds.5 mph94%29.92 "HgN/A
11:00 PM
Sat, Apr 18
77 °FPassing clouds.2 mph94%29.92 "HgN/A
10:00 PM79 °FPassing clouds.2 mph89%29.92 "HgN/A
9:00 PM77 °FPassing clouds.2 mph94%29.89 "HgN/A
8:00 PM77 °FPassing clouds.2 mph94%29.86 "HgN/A
7:00 PM77 °FPassing clouds.3 mph94%29.86 "HgN/A
6:00 PM77 °FBroken clouds.5 mph94%29.80 "HgN/A
Weather by CustomWeather, © 2015

See weather overviewHow to use our weather pages